Regional Weather Roundup
Issued by NWS

Home | Current Version | Previous Version | Text Only | Print | Product List | Glossary Off
Versions: 1 2 3 4 5 6 7 8 9 10 11 12 13 14 15 16 17 18 19 20 21 22 23 24 25 26 27 28 29 30 31 32 33 34 35 36 37 38 39 40 41 42 43 44 45 46 47 48 49 50

000
ASUS45 KBOU 211807
RWRCO

WEATHER ROUNDUP FOR COLORADO
NATIONAL WEATHER SERVICE DENVER/BOULDER CO
1100 AM MST TUE FEB 21 2017

NOTE: "FAIR" INDICATES FEW OR NO CLOUDS BELOW 12000 FEET WITH NO
SIGNIFICANT WEATHER AND/OR OBSTRUCTIONS TO VISIBILITY.

COZ001>005-013-030-031-211900-
...NORTHWEST COLORADO...

CITY           SKY/WX    TMP DP  RH WIND       PRES   REMARKS
CRAIG          PTSUNNY   54  32  43 SW21G29   30.18F
HAYDEN         CLOUDY    45  27  49 NE3       30.20S
MEEKER         FAIR      52  34  50 SW17G28   30.21S
MOUNT WERNER   NOT AVBL
STEAMBOAT SPGS CLOUDY    43  29  57 CALM      30.21F
WALDEN         NOT AVBL
$$

COZ006>008-011-211900-
...WEST CENTRAL VALLEYS...

CITY           SKY/WX    TMP DP  RH WIND       PRES   REMARKS
GRAND JUNCTION FAIR      56  37  49 SE8       30.24F
MONTROSE       FAIR      55  32  41 VRB6      30.30F
EAGLE          MOSUNNY   52  28  40 W22       30.25F
RIFLE          FAIR      53  33  46 CALM      30.24F
DELTA          FAIR      58  35  42 NE6       30.29F
NUCLA          FAIR      55  34  44 SW13      30.36F
$$

COZ017>023-064>068-211900-
...SOUTHWEST COLORADO...

CITY           SKY/WX    TMP DP  RH WIND       PRES   REMARKS
DURANGO        FAIR      46  32  58 CALM      30.40F
CORTEZ         FAIR      53  37  54 SW9       30.37F
PAGOSA SPRINGS FAIR      42  27  54 W3        30.42F
TELLURIDE      FAIR      44  21  40 CALM      30.39F
WOLF CREEK PAS FAIR      30  23  74 S9        30.53S WCI  22
$$

COZ009-010-012-014-032>034-037-058>063-211900-
...CENTRAL COLORADO...

CITY           SKY/WX    TMP DP  RH WIND       PRES   REMARKS
ASPEN          FAIR      47  24  40 N5        30.26F
BUENA VISTA    FAIR      51  20  28 SE7       30.30S
COPPER MTN     FAIR      34  18  51 S16G23    30.38F WCI  23
BERTHOUD PASS  FAIR      27  18  69 W24G32    30.34F WCI  12
COTTONWOOD PAS FAIR      45  19  36 W6G18     30.36R
GUNNISON       FAIR      32  22  66 E3        30.40F
KREMMLING      FAIR      55  30  38 W16G26    30.25S
LEADVILLE      FAIR      35  17  47 S8        30.31F WCI  29
MONARCH PASS   FAIR      27  23  86 SW25G32   30.53F WCI  11
SALIDA         FAIR      54  23  30 SW17G25   30.37F
SUNLIGHT       NOT AVBL
WILKERSON PASS FAIR      36  21  55 SW10G18   30.40S
$$

COZ069>075-211900-
...SAN LUIS VALLEY/SANGRE DE CRISTO MOUNTAINS...

CITY           SKY/WX    TMP DP  RH WIND       PRES   REMARKS
ALAMOSA        FAIR      42  28  57 S3        30.38F
LA VETA PASS   FAIR      39  25  56 MISG      30.40R
SAGUACHE       FAIR      43  25  49 S8        30.39F
$$

COZ035-036-038>040-211900-
...NORTHERN COLORADO FRONT RANGE...

CITY           SKY/WX    TMP DP  RH WIND       PRES   REMARKS
DENVER INTL AP FAIR      69  15  12 W24       30.08R
DMNS CITY PARK   N/A     67  10  10 W14G30    30.05F
AURORA         NOT AVBL
FRONT RANGE AP MOSUNNY   70  16  12 W23G30    30.08S
ERIE MUNI ARPT FAIR      68  13  12 W22G32    30.06S
BOULDER MUN AP FAIR      64  19  17 SW16G33   30.07R
CENTENNIAL     FAIR      66  13  12 W13G26    30.11S
BROOMFIELD     MOSUNNY   66  18  15 W30G40    30.07S
FORT COLLINS   FAIR      64  24  21 W29G45    30.02R
LONGMONT       FAIR      69  19  15 W24G35    30.08R
$$

COZ041-046-047-076>085-087-088-211900-
...PIKES PEAK/PALMER DIVIDE AND SOUTHERN FOOTHILLS...

CITY           SKY/WX    TMP DP  RH WIND       PRES   REMARKS
COLO. SPRINGS  FAIR      68   1   7 NW20G28   30.14S
A. F. ACADEMY  NOT AVBL
SCHRIEVER AFB  FAIR      67   5   8 W21G31    30.15S
ELLICOTT       FAIR     N/A N/A N/A SW9       30.13S
FALCON         FAIR      64   8  11 W25G36    30.17S
FORT CARSON    NOT AVBL
LIMON          FAIR      69  13  11 NW21G31   30.08S
MONUMENT HILL  FAIR      61  14  16 W17G25    30.18F
TRINIDAD       FAIR      67  15  13 VRB5      30.16F
$$

COZ042>045-048>051-090-091-211900-
...NORTHEAST COLORADO...

CITY           SKY/WX    TMP DP  RH WIND       PRES   REMARKS
GREELEY ARPT   FAIR      66  23  19 W23G33    30.04S
AKRON          FAIR      67  23  19 W29G36    30.02F
BURLINGTON     FAIR      73  22  14 NW15      30.06R
WRAY           NOT AVBL
STERLING       FAIR      68  28  22 W14       30.00S
HOLYOKE        FAIR      73  27  17 NW18G25   29.99F
FORT MORGAN    FAIR      68  21  16 W24       30.03S
$$

COZ086-089-092>099-211900-
...SOUTHEAST COLORADO...

CITY           SKY/WX    TMP DP  RH WIND       PRES   REMARKS
PUEBLO         FAIR      71  22  15 W29G41    30.09F
LA JUNTA       FAIR      72  25  17 NW15      30.09S
LAMAR          FAIR      71  24  17 SW7       30.06F
SPRINGFIELD      N/A     71  23  16 NW17G29   30.10R
$$



USA.gov is the U.S. government's official web portal to all federal, state and local government web resources and services.